| time (UTC) | temp C | wind direction | speed KPH | gust KPH | rain 1hr cm | rain 24hr cm | rain mn cm | humidity % | barometer mb |
| 20260507003052 | 7 | 0.0 | 3.2 | 0.00 | 0.33 | 0.00 | 96 | 1010.4 | |
| 20260507002048 | 7 | 147 | 0.0 | 6.4 | 0.00 | 0.33 | 0.00 | 96 | 1010.3 |
| 20260507001045 | 7 | 135 | 1.6 | 6.4 | 0.00 | 0.33 | 0.00 | 96 | 1010.3 |
| 20260507000041 | 7 | 225 | 0.0 | 3.2 | 0.00 | 0.33 | 0.00 | 95 | 1010.4 |
| 20260506235037 | 7 | 0.0 | 3.2 | 0.00 | 0.33 | 0.00 | 95 | 1010.5 | |
| 20260506234034 | 7 | 135 | 0.0 | 3.2 | 0.00 | 0.33 | 0.00 | 95 | 1010.5 |
| 20260506233031 | 7 | 203 | 0.0 | 3.2 | 0.00 | 0.33 | 0.00 | 94 | 1010.4 |
| 20260506232028 | 8 | 182 | 1.6 | 6.4 | 0.00 | 0.33 | 0.00 | 93 | 1010.2 |
| 20260506231026 | 8 | 218 | 1.6 | 3.2 | 0.00 | 0.33 | 0.00 | 93 | 1010.2 |
| 20260506230023 | 8 | 171 | 1.6 | 6.4 | 0.00 | 0.33 | 0.00 | 93 | 1010.2 |
| 20260506225020 | 8 | 126 | 1.6 | 6.4 | 0.00 | 0.33 | 0.00 | 93 | 1010.2 |
| 20260506224113 | 8 | 174 | 0.0 | 3.2 | 0.00 | 0.33 | 0.00 | 93 | 1010.2 |
| 20260506223110 | 8 | 180 | 0.0 | 3.2 | 0.00 | 0.33 | 0.00 | 93 | 1010.1 |
| 20260506222107 | 8 | 203 | 0.0 | 3.2 | 0.00 | 0.33 | 0.00 | 93 | 1010.0 |
| 20260506221103 | 8 | 140 | 1.6 | 6.4 | 0.00 | 0.33 | 0.00 | 93 | 1009.9 |
| 20260506220059 | 8 | 159 | 1.6 | 6.4 | 0.00 | 0.33 | 0.00 | 92 | 1010.0 |
| 20260506215056 | 8 | 181 | 1.6 | 6.4 | 0.00 | 0.33 | 0.33 | 92 | 1009.9 |
| 20260506214052 | 8 | 158 | 0.0 | 3.2 | 0.00 | 0.33 | 0.33 | 92 | 1009.8 |
| 20260506213049 | 8 | 174 | 1.6 | 3.2 | 0.00 | 0.33 | 0.33 | 91 | 1009.9 |
| 20260506212046 | 8 | 187 | 1.6 | 6.4 | 0.00 | 0.33 | 0.33 | 91 | 1009.9 |
| 20260506211042 | 8 | 164 | 1.6 | 6.4 | 0.00 | 0.33 | 0.33 | 91 | 1009.7 |
| 20260506210042 | 8 | 216 | 1.6 | 6.4 | 0.00 | 0.33 | 0.33 | 92 | 1009.8 |
| 20260506205036 | 8 | 249 | 1.6 | 11.3 | 0.00 | 0.33 | 0.33 | 92 | 1009.7 |
| 20260506204032 | 8 | 243 | 1.6 | 6.4 | 0.00 | 0.33 | 0.33 | 92 | 1009.7 |
| 20260506203029 | 8 | 217 | 1.6 | 3.2 | 0.00 | 0.33 | 0.33 | 92 | 1009.6 |
| 20260506202028 | 8 | 207 | 1.6 | 6.4 | 0.00 | 0.33 | 0.33 | 91 | 1009.6 |
| 20260506201021 | 8 | 196 | 1.6 | 6.4 | 0.00 | 0.33 | 0.33 | 91 | 1009.5 |
| 20260506200018 | 9 | 188 | 1.6 | 6.4 | 0.00 | 0.38 | 0.33 | 90 | 1009.3 |
| 20260506195115 | 8 | 175 | 1.6 | 6.4 | 0.00 | 0.43 | 0.33 | 91 | 1009.6 |
| 20260506194112 | 8 | 255 | 1.6 | 6.4 | 0.00 | 0.43 | 0.33 | 90 | 1009.4 |
| 20260506193108 | 9 | 187 | 1.6 | 9.7 | 0.00 | 0.46 | 0.33 | 90 | 1009.5 |
| 20260506192104 | 8 | 161 | 1.6 | 6.4 | 0.00 | 0.48 | 0.33 | 90 | 1009.2 |
| 20260506191104 | 8 | 161 | 1.6 | 6.4 | 0.00 | 0.48 | 0.33 | 90 | 1009.0 |
| 20260506190058 | 9 | 222 | 3.2 | 6.4 | 0.00 | 0.48 | 0.33 | 90 | 1009.0 |
| 20260506185057 | 9 | 211 | 3.2 | 11.3 | 0.00 | 0.48 | 0.33 | 89 | 1008.7 |
| 20260506184051 | 9 | 178 | 3.2 | 11.3 | 0.00 | 0.48 | 0.33 | 89 | 1008.7 |
| 20260506183047 | 9 | 159 | 3.2 | 12.9 | 0.00 | 0.48 | 0.33 | 89 | 1008.6 |
| 20260506182043 | 10 | 231 | 3.2 | 6.4 | 0.00 | 0.48 | 0.33 | 88 | 1008.4 |
| 20260506181040 | 10 | 259 | 1.6 | 6.4 | 0.00 | 0.48 | 0.33 | 88 | 1008.3 |
| 20260506180039 | 10 | 190 | 3.2 | 6.4 | 0.00 | 0.48 | 0.33 | 88 | 1008.3 |
| 20260506175034 | 10 | 161 | 3.2 | 17.7 | 0.00 | 0.48 | 0.33 | 87 | 1008.0 |
| 20260506174033 | 10 | 177 | 4.8 | 12.9 | 0.00 | 0.48 | 0.33 | 87 | 1008.1 |
| 20260506173026 | 10 | 161 | 3.2 | 11.3 | 0.00 | 0.48 | 0.33 | 87 | 1008.0 |
| 20260506172023 | 10 | 196 | 3.2 | 17.7 | 0.00 | 0.48 | 0.33 | 87 | 1007.8 |
| 20260506171022 | 10 | 171 | 3.2 | 17.7 | 0.00 | 0.48 | 0.33 | 88 | 1007.7 |
| 20260506170016 | 10 | 195 | 1.6 | 6.4 | 0.00 | 0.48 | 0.33 | 90 | 1007.6 |
| 20260506165116 | 10 | 176 | 1.6 | 6.4 | 0.00 | 0.48 | 0.33 | 89 | 1007.3 |
| 20260506164110 | 10 | 151 | 3.2 | 9.7 | 0.00 | 0.48 | 0.33 | 89 | 1007.3 |
| 20260506163109 | 10 | 235 | 4.8 | 14.5 | 0.00 | 0.48 | 0.33 | 89 | 1007.4 |
| 20260506162103 | 10 | 194 | 3.2 | 6.4 | 0.00 | 0.48 | 0.33 | 89 | 1007.6 |
| 20260506161103 | 10 | 226 | 3.2 | 6.4 | 0.00 | 0.51 | 0.33 | 90 | 1007.6 |
| 20260506160056 | 10 | 210 | 3.2 | 11.3 | 0.15 | 0.51 | 0.33 | 88 | 1007.4 |
| 20260506155052 | 10 | 196 | 4.8 | 12.9 | 0.15 | 0.51 | 0.33 | 90 | 1007.3 |
| 20260506154051 | 10 | 208 | 3.2 | 11.3 | 0.15 | 0.51 | 0.33 | 92 | 1007.2 |
| 20260506153045 | 10 | 184 | 3.2 | 12.9 | 0.15 | 0.51 | 0.33 | 93 | 1007.1 |
| 20260506152041 | 11 | 181 | 3.2 | 22.5 | 0.15 | 0.51 | 0.33 | 93 | 1006.9 |
| 20260506151038 | 10 | 153 | 4.8 | 22.5 | 0.15 | 0.51 | 0.33 | 93 | 1006.5 |
| 20260506150034 | 13 | 226 | 6.4 | 17.7 | 0.03 | 0.36 | 0.18 | 80 | 1006.2 |
| 20260506145034 | 16 | 163 | 0.0 | 3.2 | 0.03 | 0.36 | 0.18 | 73 | 1004.7 |
| 20260506144028 | 18 | 180 | 0.0 | 3.2 | 0.10 | 0.36 | 0.18 | 67 | 1004.7 |
| 20260506143024 | 17 | 203 | 1.6 | 3.2 | 0.15 | 0.36 | 0.18 | 67 | 1004.8 |
| 20260506142024 | 17 | 180 | 0.0 | 3.2 | 0.18 | 0.36 | 0.18 | 70 | 1004.9 |
| 20260506141017 | 16 | 158 | 1.6 | 6.4 | 0.18 | 0.36 | 0.18 | 78 | 1004.9 |
| 20260506140114 | 15 | 151 | 0.0 | 3.2 | 0.15 | 0.33 | 0.15 | 89 | 1004.9 |
| 20260506135114 | 13 | 68 | 1.6 | 3.2 | 0.15 | 0.33 | 0.15 | 89 | 1004.9 |
| 20260506134107 | 13 | 150 | 4.8 | 9.7 | 0.10 | 0.28 | 0.10 | 82 | 1005.5 |
| 20260506133104 | 15 | 190 | 1.6 | 3.2 | 0.03 | 0.20 | 0.03 | 79 | 1005.4 |
| 20260506132101 | 16 | 185 | 1.6 | 3.2 | 0.00 | 0.18 | 0.00 | 72 | 1005.4 |
| 20260506131105 | 16 | 180 | 1.6 | 3.2 | 0.00 | 0.18 | 0.00 | 65 | 1005.4 |
| 20260506130053 | 16 | 246 | 1.6 | 3.2 | 0.00 | 0.18 | 0.00 | 64 | 1005.2 |
| 20260506125050 | 16 | 255 | 1.6 | 3.2 | 0.00 | 0.18 | 0.00 | 62 | 1005.1 |
| 20260506124046 | 17 | 0 | 0.0 | 3.2 | 0.00 | 0.18 | 0.00 | 62 | 1004.8 |
| 20260506123043 | 17 | 310 | 0.0 | 3.2 | 0.00 | 0.18 | 0.00 | 61 | 1004.6 |
| 20260506122043 | 17 | 293 | 0.0 | 3.2 | 0.00 | 0.18 | 0.00 | 61 | 1004.8 |
| 20260506121036 | 16 | 358 | 1.6 | 11.3 | 0.00 | 0.18 | 0.00 | 64 | 1004.5 |
| 20260506120033 | 17 | 57 | 1.6 | 9.7 | 0.00 | 0.18 | 0.00 | 63 | 1004.5 |
| 20260506115032 | 17 | 343 | 0.0 | 3.2 | 0.00 | 0.20 | 0.00 | 61 | 1004.8 |
| 20260506114025 | 17 | 34 | 1.6 | 6.4 | 0.00 | 0.20 | 0.00 | 59 | 1004.9 |
| 20260506113023 | 17 | 81 | 1.6 | 3.2 | 0.00 | 0.20 | 0.00 | 59 | 1005.1 |
| 20260506112022 | 17 | 52 | 1.6 | 3.2 | 0.00 | 0.20 | 0.00 | 58 | 1005.2 |
| 20260506111015 | 17 | 77 | 1.6 | 6.4 | 0.00 | 0.20 | 0.00 | 60 | 1005.3 |
| 20260506110112 | 17 | 24 | 1.6 | 3.2 | 0.00 | 0.20 | 0.00 | 65 | 1005.2 |
| 20260506105111 | 17 | 352 | 1.6 | 6.4 | 0.00 | 0.20 | 0.00 | 66 | 1005.3 |
| 20260506104105 | 16 | 335 | 1.6 | 6.4 | 0.00 | 0.20 | 0.00 | 68 | 1005.4 |
| 20260506103102 | 16 | 60 | 1.6 | 6.4 | 0.00 | 0.20 | 0.00 | 68 | 1005.2 |
| 20260506102059 | 15 | 324 | 1.6 | 6.4 | 0.00 | 0.20 | 0.00 | 68 | 1005.4 |
| 20260506101058 | 15 | 321 | 0.0 | 3.2 | 0.00 | 0.20 | 0.00 | 70 | 1005.4 |
| 20260506100051 | 15 | 315 | 1.6 | 3.2 | 0.00 | 0.20 | 0.00 | 71 | 1005.7 |
| 20260506095048 | 15 | 271 | 1.6 | 3.2 | 0.00 | 0.20 | 0.00 | 70 | 1005.9 |
| 20260506094045 | 15 | 336 | 0.0 | 3.2 | 0.00 | 0.20 | 0.00 | 69 | 1005.9 |
| 20260506093044 | 16 | 210 | 0.0 | 3.2 | 0.00 | 0.20 | 0.00 | 68 | 1006.0 |
| 20260506092037 | 15 | 315 | 0.0 | 3.2 | 0.00 | 0.20 | 0.00 | 68 | 1005.8 |
| 20260506091034 | 15 | 338 | 0.0 | 3.2 | 0.00 | 0.20 | 0.00 | 71 | 1005.9 |
| 20260506090034 | 15 | 6 | 1.6 | 6.4 | 0.00 | 0.20 | 0.00 | 71 | 1006.0 |
| 20260506085027 | 15 | 338 | 0.0 | 3.2 | 0.00 | 0.20 | 0.00 | 74 | 1005.9 |
| 20260506084024 | 14 | 90 | 0.0 | 3.2 | 0.00 | 0.20 | 0.00 | 74 | 1005.7 |
| 20260506083021 | 13 | 248 | 0.0 | 3.2 | 0.00 | 0.20 | 0.00 | 78 | 1006.0 |
| 20260506082017 | 13 | 0.0 | 3.2 | 0.00 | 0.20 | 0.00 | 79 | 1006.0 | |
| 20260506081114 | 13 | 225 | 0.0 | 3.2 | 0.00 | 0.20 | 0.00 | 82 | 1006.1 |
| 20260506080110 | 13 | 225 | 0.0 | 3.2 | 0.00 | 0.20 | 0.00 | 81 | 1006.0 |
| 20260506073101 | 12 | 158 | 0.0 | 3.2 | 0.00 | 0.20 | 0.00 | 84 | 1005.9 |
| 20260506072057 | 12 | 0.0 | 0.0 | 0.00 | 0.20 | 0.00 | 86 | 1006.1 | |
| 20260506071054 | 12 | 158 | 0.0 | 3.2 | 0.00 | 0.20 | 0.00 | 87 | 1006.2 |
| 20260506062036 | 11 | 203 | 0.0 | 3.2 | 0.00 | 0.20 | 0.00 | 91 | 1006.2 |
| 20260506061036 | 10 | 0.0 | 0.0 | 0.00 | 0.20 | 0.00 | 92 | 1006.2 | |
| 20260506051113 | 9 | 0.0 | 3.2 | 0.00 | 0.20 | 0.00 | 99 | 1006.6 | |
| 20260506050109 | 8 | 0.0 | 3.2 | 0.00 | 0.20 | 0.00 | 99 | 1006.6 | |
| 20260506045105 | 8 | 0.0 | 0.0 | 0.00 | 0.20 | 0.00 | 99 | 1006.7 | |
| 20260506044105 | 7 | 0.0 | 0.0 | 0.00 | 0.20 | 0.00 | 99 | 1006.6 | |
| 20260506043102 | 7 | 0.0 | 0.0 | 0.00 | 0.20 | 0.00 | 99 | 1006.8 | |
| 20260506042055 | 7 | 0.0 | 0.0 | 0.00 | 0.20 | 0.00 | 99 | 1006.9 | |
| 20260506041052 | 7 | 0.0 | 0.0 | 0.00 | 0.20 | 0.00 | 99 | 1007.1 | |
| 20260506040048 | 7 | 0.0 | 0.0 | 0.00 | 0.20 | 0.00 | 99 | 1007.0 | |
| 20260506035045 | 7 | 0.0 | 0.0 | 0.00 | 0.20 | 0.00 | 99 | 1007.0 | |
| 20260506034042 | 7 | 0.0 | 0.0 | 0.00 | 0.20 | 0.00 | 99 | 1007.2 | |
| 20260506033041 | 7 | 0.0 | 0.0 | 0.00 | 0.20 | 0.00 | 99 | 1007.3 | |
| 20260506032035 | 7 | 0.0 | 0.0 | 0.00 | 0.20 | 0.00 | 99 | 1007.3 | |
| 20260506031031 | 7 | 0.0 | 0.0 | 0.00 | 0.20 | 0.00 | 98 | 1007.4 | |
| 20260506030030 | 7 | 0.0 | 0.0 | 0.00 | 0.20 | 0.00 | 98 | 1007.6 | |
| 20260506025027 | 7 | 0.0 | 0.0 | 0.00 | 0.20 | 0.00 | 98 | 1007.6 | |
| 20260506024024 | 8 | 0.0 | 0.0 | 0.00 | 0.20 | 0.00 | 97 | 1007.5 | |
| 20260506023017 | 8 | 0.0 | 0.0 | 0.00 | 0.20 | 0.00 | 97 | 1007.6 | |
| 20260506022114 | 8 | 0.0 | 0.0 | 0.00 | 0.20 | 0.00 | 97 | 1007.6 | |
| 20260506021110 | 8 | 0.0 | 0.0 | 0.00 | 0.20 | 0.00 | 96 | 1007.6 | |
| 20260506020107 | 8 | 0.0 | 0.0 | 0.00 | 0.20 | 0.00 | 96 | 1007.8 | |
| 20260506015107 | 8 | 0.0 | 0.0 | 0.00 | 0.20 | 0.00 | 96 | 1007.9 | |
| 20260506014059 | 8 | 0.0 | 3.2 | 0.00 | 0.20 | 0.00 | 95 | 1007.9 | |
| 20260506013059 | 8 | 0.0 | 3.2 | 0.00 | 0.20 | 0.00 | 95 | 1007.9 | |
| 20260506012052 | 8 | 0.0 | 3.2 | 0.00 | 0.20 | 0.00 | 95 | 1008.0 | |
| 20260506011049 | 8 | 198 | 0.0 | 3.2 | 0.00 | 0.20 | 0.00 | 96 | 1008.0 |
| 20260506010045 | 8 | 141 | 0.0 | 6.4 | 0.00 | 0.20 | 0.00 | 96 | 1008.2 |
| 20260506005042 | 8 | 0.0 | 3.2 | 0.00 | 0.20 | 0.00 | 97 | 1008.1 | |
| 20260506004038 | 9 | 0.0 | 3.2 | 0.00 | 0.20 | 0.00 | 97 | 1008.0 |